DW5918 Weather Reports


Display with metric or nautical units.
time (UTC)temp
F
wind
direction
speed
MPH
gust
MPH
rain 1hr
in
rain 24hr
in
rain mn
in
humidity
%
barometer
mb
20260901160133 65 59 0.0 1.0 0.00 0.70 0.70 1 1015.2
20260901154619 65 60 1.0 3.0 0.00 0.70 0.70 1 1015.4
20260901151616 65 57 1.0 5.0 0.00 0.70 0.70 1 1015.4
20260901150034 64 37 1.0 4.0 0.01 0.70 0.70 1 1015.7
20260901144624 64 66 2.0 5.0 0.04 0.70 0.70 1 1015.9
20260901143040 64 60 0.0 4.0 0.04 0.70 0.70 1 1015.9
20260901141631 64 60 2.0 5.0 0.04 0.70 0.70 1 1015.9
20260901140043 64 60 0.0 4.0 0.05 0.69 0.69 1 1015.9
20260901134626 64 67 4.0 7.0 0.07 0.67 0.66 1 1016.3
20260901133047 64 53 0.0 4.0 0.13 0.67 0.66 1 1016.1
20260901131629 64 360 6.0 9.0 0.17 0.67 0.66 1 1015.9
20260901130048 64 65 5.0 9.0 0.15 0.65 0.64 1 1016.1
20260901124508 65 65 5.0 9.0 0.10 0.59 0.57 1 1016.1
20260901123055 65 18 0.0 0.0 0.08 0.54 0.53 1 1016.3
20260901121516 65 18 0.0 0.0 0.10 0.50 0.49 1 1015.9
20260901120114 64 18 0.0 0.0 0.21 0.50 0.49 1 1015.9
20260901114528 64 18 0.0 0.0 0.31 0.49 0.48 1 1016.0
20260901113122 65 18 0.0 0.0 0.37 0.46 0.45 1 1015.8
20260901111550 64 267 0.0 0.0 0.33 0.40 0.39 1 1015.7
20260901110002 64 360 0.0 0.0 0.22 0.28 0.27 1 1016.2
20260901104557 64 268 0.0 0.0 0.13 0.18 0.17 1 1016.0
20260901103012 64 267 0.0 0.0 0.04 0.09 0.08 1 1015.8
20260901101609 64 267 0.0 0.0 0.03 0.07 0.06 1 1015.6
20260901100025 64 266 0.0 0.0 0.02 0.06 0.05 1 1015.5
20260901094622 64 266 0.0 0.0 0.01 0.05 0.04 1 1015.5
20260901093039 64 266 0.0 0.0 0.01 0.05 0.04 1 1015.8
20260901091630 64 266 0.0 0.0 0.01 0.04 0.03 1 1015.8
20260901084626 64 266 0.0 0.0 0.01 0.04 0.03 1 1016.1
20260901083046 64 266 0.0 0.0 0.01 0.04 0.03 1 1016.2
20260901081510 64 266 0.0 0.0 0.00 0.03 0.02 1 1016.3
20260901080100 64 266 0.0 0.0 0.01 0.03 0.02 1 1016.4
20260901074510 64 266 0.0 0.0 0.01 0.03 0.02 1 1016.6
20260901073109 64 266 0.0 0.0 0.02 0.03 0.02 1 1016.5
20260901071534 64 266 0.0 0.0 0.02 0.03 0.02 1 1016.5
20260901070115 64 266 0.0 0.0 0.01 0.02 0.01 1 1016.7
20260901064540 64 266 0.0 0.0 0.01 0.02 0.01 1 1016.9
20260901063121 64 266 0.0 0.0 0.00 0.01 0.00 1 1017.2
20260901061544 64 266 0.0 0.0 0.00 0.01 0.00 1 1017.2
20260901060132 64 266 0.0 0.0 0.00 0.01 0.00 1 1017.0
20260901053014 64 266 0.0 0.0 0.00 0.01 0.00 1 1017.4
20260901051607 64 266 0.0 0.0 0.00 0.01 0.00 1 1017.7
20260901050024 64 266 0.0 0.0 0.00 0.01 0.00 1 1017.7
20260901044617 64 266 0.0 0.0 0.00 0.01 0.00 1 1017.7
20260901043037 64 266 0.0 0.0 0.00 0.01 0.00 1 1017.7
20260901041629 64 266 0.0 0.0 0.00 0.01 0.00 1 1017.7
20260901040052 64 266 0.0 0.0 0.00 0.01 0.00 1 1017.8
20260901034541 64 266 0.0 0.0 0.00 0.01 0.01 1 1017.9
20260901033132 64 266 0.0 0.0 0.00 0.01 0.01 1 1017.9
20260901031549 64 266 0.0 0.0 0.00 0.01 0.01 1 1018.1
20260901030006 64 266 0.0 0.0 0.00 0.01 0.01 1 1018.1
20260901024553 64 266 0.0 0.0 0.00 0.01 0.01 1 1018.2
20260901023003 64 266 0.0 0.0 0.00 0.01 0.01 1 1018.2
20260901021551 64 266 0.0 0.0 0.00 0.01 0.01 1 1018.3
20260901020017 64 267 0.0 0.0 0.00 0.01 0.01 1 1018.1
20260901014606 65 267 0.0 0.0 0.00 0.01 0.01 1 1018.1
20260901011614 65 268 0.0 0.0 0.00 0.01 0.01 2 1018.3
20260901010040 65 265 0.0 0.0 0.00 0.01 0.01 1 1018.4
20260901004630 65 265 0.0 0.0 0.00 0.04 0.01 1 1018.3
20260901003051 66 265 0.0 0.0 0.00 0.04 0.01 6 1018.2
20260901001513 66 265 0.0 0.0 0.00 0.04 0.01 16 1018.0
20260901000107 66 265 0.0 0.0 0.00 0.04 0.01 25 1017.9
20260831234525 67 265 0.0 0.0 0.00 0.04 0.01 32 1017.9
20260831233120 67 265 0.0 0.0 0.00 0.04 0.01 37 1017.9
20260831231541 67 265 0.0 0.0 0.00 0.04 0.01 43 1018.1
20260831230129 69 265 0.0 0.0 0.00 0.04 0.01 45 1018.1
20260831224614 70 264 0.0 0.0 0.00 0.04 0.01 57 1018.1
20260831223041 70 264 0.0 0.0 0.00 0.04 0.01 59 1018.2
20260831221631 70 264 0.0 0.0 0.00 0.04 0.01 59 1018.4
20260831220053 71 264 0.0 0.0 0.00 0.04 0.01 61 1018.2
20260831214633 71 264 0.0 0.0 0.00 0.04 0.01 62 1018.2
20260831213100 71 264 0.0 0.0 0.00 0.04 0.01 63 1018.2
20260831211513 71 264 0.0 0.0 0.00 0.04 0.01 64 1018.2
20260831210111 71 264 0.0 0.0 0.00 0.04 0.01 64 1018.1
20260831204526 71 264 0.0 0.0 0.00 0.04 0.01 63 1018.2
20260831203116 70 264 0.0 0.0 0.00 0.04 0.01 64 1018.3
20260831201534 70 264 0.0 0.0 0.00 0.04 0.01 63 1018.2
20260831194547 70 264 0.0 0.0 0.00 0.04 0.01 65 1018.5
20260831193021 72 264 0.0 0.0 0.00 0.04 0.01 66 1018.6
20260831191602 73 264 0.0 0.0 0.00 0.04 0.01 66 1018.9
20260831190026 73 264 0.0 0.0 0.00 0.04 0.01 66 1018.6
20260831184614 73 264 0.0 0.0 0.00 0.04 0.01 64 1019.0
20260831183038 73 40 0.0 0.0 0.00 0.04 0.01 66 1019.1
20260831181631 73 40 0.0 0.0 0.00 0.04 0.01 66 1019.1
20260831180042 74 40 0.0 0.0 0.00 0.04 0.01 64 1019.0
20260831174631 74 40 0.0 0.0 0.00 0.04 0.01 63 1019.1
20260831173049 74 40 0.0 0.0 0.00 0.04 0.01 64 1019.4
20260831171511 76 40 0.0 0.0 0.00 0.04 0.01 63 1019.5
20260831170106 75 40 0.0 0.0 0.00 0.04 0.01 63 1019.7
20260831163114 76 42 0.0 0.0 0.00 0.04 0.01 60 1019.9
20260831161554 74 42 0.0 0.0 0.00 0.04 0.01 61 1020.1